FW6868 Weather Reports


time (UTC)temp
F
wind
direction
speed
knots
gust
knots
rain 1hr
in
rain 24hr
in
rain mn
in
humidity
%
barometer
mb
20240222103100 70 286 5.2 11.3 0.00 0.00 0.00 37 1014.6
20240222101600 70 235 2.6 12.2 0.00 0.00 0.00 37 1014.8
20240222100055 69 252 6.1 11.3 0.00 0.00 0.00 37 1014.9
20240222094553 68 282 4.3 12.2 0.00 0.00 0.00 39 1014.9
20240222093100 67 233 6.1 10.4 0.00 0.00 0.00 40 1015.0
20240222091615 66 224 4.3 11.3 0.00 0.00 0.00 42 1015.2
20240222090100 65 267 5.2 13.9 0.00 0.00 0.00 43 1015.3
20240222084559 65 188 6.1 12.2 0.00 0.00 0.00 45 1015.4
20240222083103 63 227 4.3 10.4 0.00 0.00 0.00 49 1015.5
20240222081600 63 205 2.6 7.0 0.00 0.00 0.00 51 1015.7
20240222080101 62 210 3.5 5.2 0.00 0.00 0.00 53 1015.9
20240222074613 62 164 0.9 3.5 0.00 0.00 0.00 53 1016.1
20240222073104 62 255 2.6 7.0 0.00 0.00 0.00 53 1016.2
20240222071605 62 272 1.7 7.0 0.00 0.00 0.00 51 1015.9
20240222070101 62 199 2.6 10.4 0.00 0.00 0.00 51 1016.2
20240222064606 61 233 1.7 7.8 0.00 0.00 0.00 52 1016.1
20240222063117 62 232 3.5 9.6 0.00 0.00 0.00 52 1015.7
20240222061556 61 205 4.3 11.3 0.00 0.00 0.00 52 1015.5
20240222060055 62 251 6.1 12.2 0.00 0.00 0.00 52 1015.3
20240222054557 62 227 3.5 9.6 0.00 0.00 0.00 51 1015.8
20240222053059 62 192 4.3 7.8 0.00 0.00 0.00 50 1016.1
20240222051608 62 236 4.3 8.7 0.00 0.00 0.00 49 1016.5
20240222050104 63 209 5.2 10.4 0.00 0.00 0.00 49 1016.6
20240222044554 62 242 5.2 9.6 0.00 0.00 0.00 49 1016.5
20240222043057 61 245 4.3 9.6 0.00 0.00 0.00 50 1016.6
20240222041552 61 240 2.6 7.0 0.00 0.00 0.00 50 1016.8
20240222040054 61 245 2.6 8.7 0.00 0.00 0.00 50 1016.9
20240222034605 61 223 2.6 7.0 0.00 0.00 0.00 51 1017.2
20240222033055 61 232 1.7 6.1 0.00 0.00 0.00 51 1017.5
20240222031556 60 216 3.5 5.2 0.00 0.00 0.00 57 1017.6
20240222030100 60 225 3.5 6.1 0.00 0.00 0.00 65 1017.9
20240222024552 58 248 2.6 3.5 0.00 0.00 0.00 73 1018.2
20240222023059 56 291 1.7 2.6 0.00 0.00 0.00 80 1018.3
20240222021602 53 302 0.9 3.5 0.00 0.00 0.00 85 1018.6
20240222020130 51 0 0.0 3.5 0.00 0.00 0.00 86 1018.7
20240222014554 51 273 0.9 3.5 0.00 0.00 0.00 86 1018.6
20240222013054 52 194 3.5 5.2 0.00 0.00 0.00 87 1018.7
20240222011607 52 187 1.7 3.5 0.00 0.00 0.00 87 1018.9
20240222010110 51 202 0.9 4.3 0.00 0.00 0.00 87 1019.2
20240222004612 51 214 1.7 3.5 0.00 0.00 0.00 87 1019.4
20240222003109 51 0 0.0 2.6 0.00 0.00 0.00 86 1019.8
20240222001603 52 0 0.0 0.9 0.00 0.00 0.00 85 1020.0
20240222000059 52 0 0.9 2.6 0.00 0.00 0.00 85 1020.2
20240221234604 53 176 0.9 1.7 0.00 0.00 0.00 85 1020.5
20240221233108 53 176 0.0 2.6 0.00 0.00 0.00 85 1020.6
20240221231603 54 177 1.7 3.5 0.00 0.00 0.00 84 1020.9
20240221230107 54 130 2.6 3.5 0.00 0.00 0.00 85 1021.0
20240221224602 55 32 0.0 2.6 0.00 0.00 0.00 84 1021.1
20240221223102 54 0 0.0 0.0 0.00 0.00 0.00 83 1021.4
20240221221607 53 0 0.0 0.0 0.00 0.00 0.00 83 1021.4
20240221220108 54 360 0.9 1.7 0.00 0.00 0.00 82 1021.7
20240221214553 54 0 0.0 5.2 0.00 0.00 0.00 82 1021.9
20240221213052 54 344 2.6 4.3 0.00 0.00 0.00 83 1022.0
20240221211613 54 315 1.7 6.1 0.00 0.00 0.00 83 1022.0
20240221210106 54 339 4.3 9.6 0.00 0.00 0.00 83 1022.0
20240221204631 54 334 5.2 10.4 0.00 0.00 0.00 83 1022.3
20240221203105 55 5 4.3 11.3 0.00 0.00 0.00 83 1022.3
20240221201607 54 322 6.1 10.4 0.00 0.00 0.00 83 1022.3
20240221200128 54 300 7.0 10.4 0.00 0.00 0.00 84 1022.1
20240221194605 54 343 6.1 12.2 0.00 0.00 0.00 86 1021.9
20240221193105 54 334 7.0 13.0 0.00 0.00 0.00 86 1021.9
20240221191604 55 323 6.1 10.4 0.00 0.00 0.00 86 1021.8
20240221190053 55 335 7.0 13.0 0.00 0.00 0.00 86 1021.9
20240221184559 56 342 8.7 13.0 0.00 0.00 0.00 86 1021.8
20240221183051 56 327 7.0 12.2 0.00 0.00 0.00 85 1022.0
20240221181556 57 298 6.1 13.0 0.00 0.00 0.00 83 1021.9
20240221180100 59 336 6.1 13.0 0.00 0.00 0.00 80 1021.6
20240221174552 59 0 0.9 4.3 0.00 0.00 0.00 79 1021.4
20240221173051 59 323 1.7 5.2 0.00 0.00 0.00 79 1021.0
20240221171600 60 314 2.6 4.3 0.00 0.00 0.00 77 1021.1
20240221170051 61 324 2.6 5.2 0.00 0.00 0.00 76 1021.3
20240221164557 61 327 3.5 7.8 0.00 0.00 0.00 76 1021.4
20240221163103 61 329 2.6 5.2 0.00 0.00 0.00 78 1021.0
20240221161556 60 355 0.9 2.6 0.00 0.00 0.00 78 1020.9
20240221160057 60 355 0.9 3.5 0.00 0.00 0.00 78 1021.1
20240221154559 59 315 1.7 4.3 0.00 0.00 0.00 79 1021.4
20240221153055 59 341 2.6 4.3 0.00 0.00 0.00 80 1021.5
20240221151555 59 344 2.6 4.3 0.00 0.00 0.00 80 1021.8
20240221150056 59 360 1.7 3.5 0.00 0.00 0.00 80 1022.1
20240221144559 59 22 1.7 3.5 0.00 0.00 0.00 80 1022.0
20240221143100 59 39 0.9 3.5 0.00 0.00 0.00 80 1022.3
20240221141554 58 41 2.6 5.2 0.00 0.00 0.00 80 1022.5
20240221140059 59 41 3.5 4.3 0.00 0.00 0.00 78 1022.8
20240221134601 59 68 2.6 4.3 0.00 0.00 0.00 78 1023.1
20240221133056 59 65 2.6 4.3 0.00 0.00 0.00 78 1023.3
20240221131556 58 56 2.6 4.3 0.00 0.00 0.00 77 1023.8
20240221130057 57 46 2.6 4.3 0.00 0.00 0.00 78 1024.1
20240221124558 57 26 2.6 4.3 0.00 0.00 0.00 77 1024.7
20240221123101 58 12 2.6 3.5 0.00 0.00 0.00 76 1024.8
20240221121555 58 21 1.7 3.5 0.00 0.00 0.00 74 1025.3
20240221120105 58 5 1.7 2.6 0.00 0.00 0.00 77 1025.7
20240221114556 57 74 1.7 2.6 0.00 0.00 0.00 77 1025.8
20240221113059 57 73 1.7 4.3 0.00 0.00 0.00 78 1026.2
20240221111556 56 55 1.7 4.3 0.00 0.00 0.00 78 1026.4
20240221110057 56 57 2.6 4.3 0.00 0.00 0.00 77 1026.6
20240221104558 56 77 2.6 5.2 0.00 0.00 0.00 78 1026.6